Location: Gebenbach
(49.5378°N, 11.8735°E)
Time: 11:41:18
(UTC+00:00)

Cosmos 1315 Rocket - Pass Details

Date: 29 October 2020
Orbit: 530 x 567 km, 81.2° (Epoch: 24 November)

Event Time Altitude Azimuth Distance (km) Brightness Sun altitude
Rises 17:40:54 0° 184° (S) 2,680 6.4 -17.7°
Reaches altitude 10° 17:43:02 10° 182° (S) 1,799 5.5 -18.0°
Maximum altitude 17:46:58 69° 99° (E) 589 2.7 -18.6°
Drops below altitude 10° 17:50:59 10° 16° (NNE) 1,837 5.3 -19.3°
Enters shadow 17:52:00 - 15° (NNE) 2,251 5.8 -19.5°
